DW2182 Weather Reports


time (UTC)temp
C
wind
direction
speed
KPH
gust
KPH
rain 1hr
cm
rain 24hr
cm
rain mn
cm
humidity
%
barometer
mb
20260508004516 16 0 4.8 8.0 0.00 0.00 0.00 25 1008.5
20260508003515 16 135 6.4 12.9 0.00 0.00 0.00 26 1008.4
20260508002516 16 135 4.8 8.0 0.00 0.00 0.00 25 1008.3
20260508001535 16 135 4.8 11.3 0.00 0.00 0.00 24 1008.5
20260508000515 17 135 4.8 11.3 0.00 0.00 0.00 24 1008.4
20260507235515 17 135 4.8 11.3 0.00 0.00 0.00 25 1008.5
20260507234516 17 0 3.2 9.7 0.00 0.00 0.00 24 1008.5
20260507233515 17 135 4.8 11.3 0.00 0.00 0.00 24 1008.6
20260507232516 17 135 6.4 14.5 0.00 0.00 0.00 23 1008.6
20260507231517 17 135 9.7 19.3 0.00 0.00 0.00 23 1008.7
20260507230537 17 135 9.7 20.9 0.00 0.00 0.00 22 1008.6
20260507225516 17 158 8.0 25.7 0.00 0.00 0.00 23 1008.8
20260507224517 17 135 4.8 14.5 0.00 0.00 0.00 24 1008.8
20260507223515 17 158 9.7 20.9 0.00 0.00 0.00 22 1009.0
20260507222517 18 135 11.3 22.5 0.00 0.00 0.00 24 1009.0
20260507221516 18 135 9.7 17.7 0.00 0.00 0.00 23 1009.1
20260507220537 18 135 11.3 20.9 0.00 0.00 0.00 22 1009.3
20260507215517 18 135 8.0 16.1 0.00 0.00 0.00 21 1009.4
20260507214518 18 135 6.4 14.5 0.00 0.00 0.00 24 1009.4
20260507213517 18 135 8.0 16.1 0.00 0.00 0.00 22 1009.7
20260507212517 18 113 4.8 14.5 0.00 0.00 0.00 24 1009.6
20260507211517 18 135 6.4 16.1 0.00 0.00 0.00 23 1009.8
20260507210517 18 135 8.0 16.1 0.00 0.00 0.00 24 1009.6
20260507205517 18 135 6.4 16.1 0.00 0.00 0.00 22 1009.8
20260507204517 18 135 8.0 22.5 0.00 0.00 0.00 23 1009.9
20260507203517 17 135 4.8 14.5 0.00 0.00 0.00 23 1010.0
20260507202517 18 135 8.0 19.3 0.00 0.00 0.00 23 1010.2
20260507201517 18 135 8.0 17.7 0.00 0.00 0.00 23 1010.3
20260507200517 17 135 6.4 11.3 0.00 0.00 0.00 23 1010.4
20260507195517 18 135 11.3 17.7 0.00 0.00 0.00 23 1010.6
20260507194517 18 135 4.8 11.3 0.00 0.00 0.00 26 1010.6
20260507193517 18 135 8.0 16.1 0.00 0.00 0.00 26 1010.8
20260507192517 18 135 8.0 20.9 0.00 0.00 0.00 25 1010.7
20260507191517 17 135 8.0 20.9 0.00 0.00 0.00 24 1010.8
20260507190517 17 135 4.8 16.1 0.00 0.00 0.00 26 1010.7
20260507185517 17 158 11.3 24.1 0.00 0.00 0.00 24 1010.9
20260507184537 17 113 6.4 11.3 0.00 0.00 0.00 25 1010.8
20260507183517 16 135 6.4 16.1 0.00 0.00 0.00 29 1011.1
20260507182517 16 158 8.0 14.5 0.00 0.00 0.00 26 1011.0
20260507181537 16 0 6.4 16.1 0.00 0.00 0.00 26 1011.1
20260507180517 16 0 8.0 29.0 0.00 0.00 0.00 28 1011.1
20260507175517 16 23 6.4 17.7 0.00 0.00 0.00 32 1011.4
20260507174517 15 158 6.4 14.5 0.00 0.00 0.00 28 1011.3
20260507173518 16 113 8.0 20.9 0.00 0.00 0.00 27 1011.4
20260507172518 15 135 4.8 11.3 0.00 0.00 0.00 29 1011.5
20260507171517 15 23 8.0 20.9 0.00 0.00 0.00 30 1011.6
20260507170517 15 135 3.2 8.0 0.00 0.00 0.00 30 1011.7
20260507165517 14 158 6.4 12.9 0.00 0.00 0.00 32 1011.6
20260507164517 14 0 8.0 16.1 0.00 0.00 0.00 31 1011.7
20260507163517 13 45 3.2 8.0 0.00 0.00 0.00 36 1011.7
20260507162537 13 45 4.8 17.7 0.00 0.00 0.00 37 1011.7
20260507161517 13 23 4.8 12.9 0.00 0.00 0.00 34 1011.7
20260507160517 12 45 4.8 14.5 0.00 0.00 0.00 35 1011.8
20260507155517 12 158 8.0 14.5 0.00 0.00 0.00 34 1011.8
20260507154517 12 45 4.8 14.5 0.00 0.00 0.00 37 1011.9
20260507153537 11 45 4.8 9.7 0.00 0.00 0.00 40 1011.9
20260507152537 11 45 6.4 14.5 0.00 0.00 0.00 40 1011.9
20260507151517 11 45 3.2 8.0 0.00 0.00 0.00 41 1011.9
20260507150517 10 45 6.4 19.3 0.00 0.00 0.00 46 1011.9
20260507145518 10 45 4.8 14.5 0.00 0.00 0.00 47 1011.9
20260507144517 10 45 4.8 14.5 0.00 0.00 0.00 48 1012.0
20260507143517 10 0 4.8 12.9 0.00 0.00 0.00 48 1012.0
20260507142517 10 158 1.6 9.7 0.00 0.00 0.00 50 1012.1
20260507141517 10 23 3.2 9.7 0.00 0.00 0.00 50 1012.2
20260507140517 10 45 3.2 6.4 0.00 0.00 0.00 50 1012.3
20260507135517 9 45 3.2 8.0 0.00 0.00 0.00 50 1012.1
20260507134517 9 45 3.2 8.0 0.00 0.00 0.00 51 1012.2
20260507133517 8 45 3.2 6.4 0.00 0.00 0.00 54 1012.1
20260507132517 7 68 3.2 9.7 0.00 0.00 0.00 56 1012.3
20260507131517 7 45 3.2 4.8 0.00 0.00 0.00 60 1012.3
20260507130517 6 68 1.6 4.8 0.00 0.00 0.00 65 1012.3
20260507125517 5 0 3.2 4.8 0.00 0.00 0.00 66 1012.1
20260507124537 4 0 1.6 3.2 0.00 0.00 0.00 70 1012.2
20260507123517 3 0.0 0.0 0.00 0.00 0.00 74 1012.3
20260507122517 2 0.0 0.0 0.00 0.00 0.00 78 1012.2
20260507121517 2 0.0 0.0 0.00 0.00 0.00 79 1012.3
20260507120517 1 0.0 0.0 0.00 0.00 0.00 79 1012.3
20260507115517 1 0.0 0.0 0.00 0.00 0.00 78 1012.1
20260507114517 1 0.0 0.0 0.00 0.00 0.00 77 1012.2
20260507113517 1 0.0 0.0 0.00 0.00 0.00 76 1012.3
20260507112517 1 0.0 0.0 0.00 0.00 0.00 76 1012.4
20260507111536 1 0.0 0.0 0.00 0.00 0.00 76 1012.5
20260507110517 1 0.0 0.0 0.00 0.00 0.00 76 1012.5
20260507105557 1 0.0 0.0 0.00 0.00 0.00 76 1012.6
20260507104516 1 0.0 0.0 0.00 0.00 0.00 75 1012.6
20260507103516 1 0.0 0.0 0.00 0.00 0.00 75 1012.5
20260507102516 1 0.0 0.0 0.00 0.00 0.00 75 1012.4
20260507101517 1 0.0 0.0 0.00 0.00 0.00 74 1012.6
20260507100537 1 0.0 0.0 0.00 0.00 0.00 74 1012.7
20260507095516 1 0.0 0.0 0.00 0.00 0.00 73 1012.7
20260507094536 2 0.0 0.0 0.00 0.00 0.00 73 1012.8
20260507093516 2 0.0 0.0 0.00 0.00 0.00 72 1013.0
20260507092517 2 0.0 0.0 0.00 0.00 0.00 72 1012.9
20260507091557 2 0.0 0.0 0.00 0.00 0.00 72 1012.9
20260507090516 2 0.0 0.0 0.00 0.00 0.00 72 1012.8
20260507085516 2 0.0 0.0 0.00 0.00 0.00 71 1012.7
20260507084517 2 0.0 0.0 0.00 0.00 0.00 70 1012.7
20260507083556 3 0.0 0.0 0.00 0.00 0.00 69 1012.7
20260507082516 3 0.0 0.0 0.00 0.00 0.00 69 1012.9
20260507081517 3 0.0 0.0 0.00 0.00 0.00 70 1012.9
20260507080516 3 0.0 0.0 0.00 0.00 0.00 69 1013.1
20260507075516 3 0.0 0.0 0.00 0.00 0.00 70 1013.3
20260507074516 3 0.0 0.0 0.00 0.00 0.00 69 1013.2
20260507073517 3 0.0 0.0 0.00 0.00 0.00 70 1013.2
20260507072516 3 0.0 0.0 0.00 0.00 0.00 70 1013.2
20260507071516 3 0.0 0.0 0.00 0.00 0.00 70 1013.5
20260507070517 3 0.0 0.0 0.00 0.00 0.00 69 1013.5
20260507065516 4 0.0 0.0 0.00 0.00 0.00 69 1013.6
20260507064516 4 0.0 0.0 0.00 0.00 0.00 68 1013.8
20260507063516 4 0.0 0.0 0.00 0.00 0.00 67 1013.8
20260507062517 4 0.0 0.0 0.00 0.00 0.00 65 1014.1
20260507061516 4 0.0 0.0 0.00 0.00 0.00 64 1014.1
20260507060516 4 0.0 0.0 0.00 0.00 0.00 64 1014.2
20260507055517 4 0.0 0.0 0.00 0.00 0.00 65 1014.2
20260507054516 4 0.0 0.0 0.00 0.00 0.00 65 1014.1
20260507053536 3 0.0 0.0 0.00 0.00 0.00 66 1014.1
20260507052517 3 0.0 0.0 0.00 0.00 0.00 65 1014.0
20260507051517 3 0.0 0.0 0.00 0.00 0.00 65 1014.0
20260507050516 3 0.0 0.0 0.00 0.00 0.00 64 1014.0
20260507045517 3 0.0 0.0 0.00 0.00 0.00 63 1013.9
20260507044556 3 0.0 0.0 0.00 0.00 0.00 63 1013.9
20260507043516 3 0.0 0.0 0.00 0.00 0.00 63 1014.0
20260507042537 3 0.0 0.0 0.00 0.00 0.00 61 1013.9
20260507041537 4 0.0 0.0 0.00 0.00 0.00 61 1014.0
20260507040517 4 0.0 0.0 0.00 0.00 0.00 61 1014.1
20260507035517 4 0.0 0.0 0.00 0.00 0.00 59 1014.1
20260507034517 5 0.0 0.0 0.00 0.00 0.00 58 1014.2
20260507033537 5 0.0 0.0 0.00 0.00 0.00 56 1014.2
20260507032516 5 0.0 0.0 0.00 0.00 0.00 54 1014.4
20260507031516 6 0.0 0.0 0.00 0.00 0.00 54 1014.4
20260507030516 6 0.0 0.0 0.00 0.00 0.00 52 1014.6
20260507025536 6 0.0 0.0 0.00 0.00 0.00 52 1014.5
20260507024536 6 0 1.6 3.2 0.00 0.00 0.00 52 1014.5
20260507023536 6 0.0 3.2 0.00 0.00 0.00 50 1014.6
20260507022516 7 0.0 3.2 0.00 0.00 0.00 49 1014.5
20260507021516 7 0.0 3.2 0.00 0.00 0.00 48 1014.4
20260507020517 7 0.0 0.0 0.00 0.00 0.00 48 1014.4
20260507015517 8 0.0 0.0 0.00 0.00 0.00 47 1014.5
20260507014517 8 0.0 0.0 0.00 0.00 0.00 45 1014.5
20260507013517 8 0 1.6 3.2 0.00 0.00 0.00 45 1014.4
20260507012516 9 158 1.6 6.4 0.00 0.00 0.00 43 1014.5
20260507011517 9 0.0 3.2 0.00 0.00 0.00 43 1014.4
20260507010517 9 158 3.2 6.4 0.00 0.00 0.00 42 1014.4
20260507005537 9 158 3.2 14.5 0.00 0.00 0.00 41 1014.4